Time,TemperatureF,DewpointF,PressureIn,WindDirection,WindDirectionDegrees,WindSpeedMPH,WindSpeedGustMPH,Humidity,HourlyPrecipIn,Conditions,Clouds,dailyrainin,SoftwareType,DateUTC
2013-10-07 00:13:00,69.0,66.0,29.90,NE,49,3.0,9.0,89,0.00,,,0.01,,2013-10-07 04:13:00,
2013-10-07 00:24:00,69.0,66.0,29.90,West,260,2.0,8.0,89,0.00,,,0.01,,2013-10-07 04:24:00,
2013-10-07 00:44:00,69.0,66.0,29.89,West,280,2.0,7.0,89,0.00,,,0.01,,2013-10-07 04:44:00,
2013-10-07 00:53:00,69.0,66.0,29.89,SW,225,1.0,7.0,89,0.00,,,0.01,,2013-10-07 04:53:00,
2013-10-07 01:13:00,69.0,66.0,29.89,West,273,3.0,8.0,89,0.00,,,0.01,,2013-10-07 05:13:00,
2013-10-07 01:23:00,69.0,65.0,29.88,WSW,240,3.0,8.0,88,0.00,,,0.01,,2013-10-07 05:23:00,
2013-10-07 01:43:00,68.0,64.0,29.88,WSW,257,2.0,6.0,88,0.00,,,0.01,,2013-10-07 05:43:00,
2013-10-07 01:52:00,69.0,65.0,29.87,SW,229,4.0,16.0,88,0.00,,,0.01,,2013-10-07 05:52:00,
2013-10-07 02:12:00,69.0,65.0,29.86,South,173,3.0,9.0,88,0.00,,,0.01,,2013-10-07 06:12:00,
2013-10-07 02:22:00,68.0,64.0,29.86,SW,225,2.0,13.0,88,0.00,,,0.01,,2013-10-07 06:22:00,
2013-10-07 02:42:00,68.0,64.0,29.85,West,264,4.0,9.0,88,0.00,,,0.01,,2013-10-07 06:42:00,
2013-10-07 02:53:00,68.0,64.0,29.84,WSW,246,2.0,7.0,88,0.00,,,0.01,,2013-10-07 06:53:00,
2013-10-07 03:12:00,68.0,65.0,29.83,WNW,302,1.0,7.0,89,0.00,,,0.01,,2013-10-07 07:12:00,
2013-10-07 03:22:00,68.0,65.0,29.83,West,269,1.0,6.0,89,0.00,,,0.01,,2013-10-07 07:22:00,
2013-10-07 03:42:00,68.0,65.0,29.82,SW,226,3.0,8.0,89,0.00,,,0.01,,2013-10-07 07:42:00,
2013-10-07 03:52:00,68.0,64.0,29.81,North,1,2.0,10.0,88,0.00,,,0.01,,2013-10-07 07:52:00,
2013-10-07 04:12:00,68.0,64.0,29.81,West,279,3.0,9.0,88,0.00,,,0.01,,2013-10-07 08:12:00,
2013-10-07 04:21:00,68.0,64.0,29.81,West,264,1.0,6.0,87,0.00,,,0.01,,2013-10-07 08:21:00,
2013-10-07 04:42:00,68.0,64.0,29.81,WSW,238,2.0,8.0,87,0.00,,,0.01,,2013-10-07 08:42:00,
2013-10-07 04:52:00,68.0,64.0,29.80,WSW,255,2.0,10.0,87,0.00,,,0.01,,2013-10-07 08:52:00,
2013-10-07 05:11:00,68.0,64.0,29.80,SW,218,1.0,8.0,87,0.00,,,0.01,,2013-10-07 09:11:00,
2013-10-07 05:22:00,68.0,64.0,29.81,SSW,204,2.0,7.0,87,0.00,,,0.01,,2013-10-07 09:22:00,
2013-10-07 05:43:00,68.0,64.0,29.80,SW,232,1.0,4.0,87,0.00,,,0.01,,2013-10-07 09:43:00,
2013-10-07 05:54:00,68.0,64.0,29.80,WSW,246,1.0,11.0,87,0.00,,,0.01,,2013-10-07 09:54:00,
2013-10-07 06:13:00,67.0,63.0,29.79,SW,223,3.0,9.0,87,0.00,,,0.01,,2013-10-07 10:13:00,
2013-10-07 06:23:00,67.0,63.0,29.78,WSW,240,3.0,10.0,87,0.00,,,0.01,,2013-10-07 10:23:00,
2013-10-07 06:43:00,67.0,63.0,29.77,ESE,108,3.0,9.0,87,0.00,,,0.01,,2013-10-07 10:43:00,
2013-10-07 06:53:00,67.0,63.0,29.77,SE,142,2.0,9.0,87,0.00,,,0.01,,2013-10-07 10:53:00,
2013-10-07 07:12:00,67.0,63.0,29.78,SE,139,3.0,6.0,87,0.00,,,0.01,,2013-10-07 11:12:00,
2013-10-07 07:22:00,68.0,64.0,29.77,West,270,1.0,7.0,87,0.00,,,0.01,,2013-10-07 11:22:00,
2013-10-07 07:42:00,68.0,64.0,29.76,SSE,153,2.0,6.0,87,0.00,,,0.01,,2013-10-07 11:42:00,
2013-10-07 07:52:00,68.0,64.0,29.76,NNW,344,2.0,8.0,86,0.00,,,0.01,,2013-10-07 11:52:00,
2013-10-07 08:12:00,68.0,64.0,29.75,SW,226,2.0,9.0,86,0.00,,,0.01,,2013-10-07 12:12:00,
2013-10-07 08:22:00,68.0,64.0,29.75,SE,129,2.0,9.0,86,0.00,,,0.01,,2013-10-07 12:22:00,
2013-10-07 08:43:00,68.0,64.0,29.74,WSW,256,4.0,9.0,86,0.00,,,0.01,,2013-10-07 12:43:00,
2013-10-07 08:52:00,68.0,64.0,29.73,ESE,117,3.0,10.0,86,0.00,,,0.01,,2013-10-07 12:52:00,
2013-10-07 09:11:00,69.0,64.0,29.72,South,187,3.0,11.0,85,0.00,,,0.01,,2013-10-07 13:11:00,
2013-10-07 09:22:00,69.0,64.0,29.72,West,266,3.0,6.0,85,0.00,,,0.01,,2013-10-07 13:22:00,
2013-10-07 09:42:00,68.0,64.0,29.72,SSW,210,2.0,12.0,87,0.00,,,0.01,,2013-10-07 13:42:00,
2013-10-07 09:52:00,68.0,64.0,29.72,SSW,210,2.0,9.0,88,0.00,,,0.01,,2013-10-07 13:52:00,
2013-10-07 10:11:00,67.0,64.0,29.72,West,261,5.0,12.0,91,0.03,,,0.04,,2013-10-07 14:11:00,
2013-10-07 10:42:00,58.0,56.0,29.76,SSW,205,6.0,11.0,94,0.56,,,0.57,,2013-10-07 14:42:00,
2013-10-07 10:52:00,58.0,57.0,29.76,East,96,1.0,7.0,95,0.73,,,0.74,,2013-10-07 14:52:00,
2013-10-07 11:11:00,57.0,56.0,29.75,West,278,8.0,14.0,95,0.76,,,0.80,,2013-10-07 15:11:00,
2013-10-07 11:22:00,56.0,55.0,29.75,West,263,5.0,11.0,95,0.45,,,0.87,,2013-10-07 15:22:00,
2013-10-07 11:43:00,56.0,55.0,29.74,WSW,249,3.0,10.0,95,0.35,,,0.92,,2013-10-07 15:43:00,
2013-10-07 11:54:00,56.0,55.0,29.77,SW,224,3.0,9.0,95,0.20,,,0.94,,2013-10-07 15:54:00,
2013-10-07 12:13:00,55.0,54.0,29.78,South,190,3.0,8.0,95,0.13,,,0.94,,2013-10-07 16:13:00,
2013-10-07 12:23:00,55.0,54.0,29.78,South,176,2.0,8.0,95,0.07,,,0.94,,2013-10-07 16:23:00,
2013-10-07 12:53:00,54.0,53.0,29.80,SW,226,4.0,7.0,95,0.03,,,0.97,,2013-10-07 16:53:00,
2013-10-07 13:12:00,54.0,53.0,29.78,WNW,287,5.0,9.0,95,0.06,,,1.00,,2013-10-07 17:12:00,
2013-10-07 13:22:00,54.0,53.0,29.75,West,270,1.0,5.0,95,0.08,,,1.02,,2013-10-07 17:22:00,
2013-10-07 13:53:00,53.0,52.0,29.78,South,169,6.0,12.0,95,0.08,,,1.05,,2013-10-07 17:53:00,
2013-10-07 14:12:00,53.0,51.0,29.79,SSE,149,6.0,14.0,94,0.05,,,1.05,,2013-10-07 18:12:00,
2013-10-07 14:22:00,53.0,52.0,29.80,West,266,5.0,12.0,95,0.03,,,1.05,,2013-10-07 18:22:00,
2013-10-07 14:42:00,54.0,53.0,29.81,SW,232,1.0,7.0,95,0.02,,,1.05,,2013-10-07 18:42:00,
2013-10-07 14:52:00,55.0,53.0,29.81,SE,125,2.0,5.0,94,0.00,,,1.05,,2013-10-07 18:52:00,
2013-10-07 15:11:00,56.0,53.0,29.81,SW,219,7.0,20.0,91,0.00,,,1.05,,2013-10-07 19:11:00,
2013-10-07 15:22:00,55.0,52.0,29.83,SE,146,2.0,17.0,90,0.00,,,1.05,,2013-10-07 19:22:00,
2013-10-07 15:42:00,55.0,51.0,29.83,SW,232,7.0,16.0,86,0.00,,,1.04,,2013-10-07 19:42:00,
2013-10-07 15:53:00,56.0,50.0,29.83,West,281,7.0,15.0,81,0.00,,,1.04,,2013-10-07 19:53:00,
2013-10-07 16:12:00,56.0,50.0,29.84,ESE,115,3.0,12.0,81,0.00,,,1.04,,2013-10-07 20:12:00,
2013-10-07 16:22:00,58.0,49.0,29.84,WSW,248,5.0,10.0,73,0.00,,,1.04,,2013-10-07 20:22:00,
2013-10-07 16:43:00,58.0,49.0,29.85,WSW,245,5.0,12.0,72,0.00,,,1.04,,2013-10-07 20:43:00,
2013-10-07 16:52:00,57.0,47.0,29.86,West,267,8.0,19.0,68,0.00,,,1.04,,2013-10-07 20:52:00,
2013-10-07 17:12:00,57.0,47.0,29.87,WSW,252,7.0,14.0,69,0.00,,,1.04,,2013-10-07 21:12:00,
2013-10-07 17:23:00,57.0,47.0,29.88,WSW,239,4.0,14.0,68,0.00,,,1.04,,2013-10-07 21:23:00,
2013-10-07 17:43:00,57.0,45.0,29.88,SW,233,5.0,14.0,65,0.00,,,1.04,,2013-10-07 21:43:00,
2013-10-07 17:55:00,56.0,44.0,29.89,SW,228,11.0,20.0,63,0.00,,,1.04,,2013-10-07 21:55:00,
2013-10-07 18:13:00,55.0,43.0,29.90,WSW,240,10.0,17.0,65,0.00,,,1.04,,2013-10-07 22:13:00,
2013-10-07 18:24:00,55.0,44.0,29.91,WSW,243,4.0,9.0,66,0.00,,,1.04,,2013-10-07 22:24:00,
2013-10-07 18:43:00,55.0,44.0,29.92,SSW,194,2.0,8.0,66,0.00,,,1.04,,2013-10-07 22:43:00,
2013-10-07 18:53:00,54.0,44.0,29.93,WNW,285,5.0,8.0,68,0.00,,,1.04,,2013-10-07 22:53:00,
2013-10-07 19:22:00,52.0,43.0,29.95,South,172,3.0,6.0,72,0.00,,,1.04,,2013-10-07 23:22:00,
2013-10-07 19:52:00,52.0,44.0,29.96,SSE,148,0.0,6.0,73,0.00,,,1.04,,2013-10-07 23:52:00,
2013-10-07 20:12:00,50.0,44.0,29.97,SW,218,0.0,2.0,80,0.00,,,1.04,,2013-10-08 00:12:00,
2013-10-07 20:22:00,49.0,43.0,29.97,SW,219,0.0,3.0,80,0.00,,,1.04,,2013-10-08 00:22:00,
2013-10-07 20:42:00,49.0,43.0,29.98,SSE,163,0.0,1.0,80,0.00,,,1.04,,2013-10-08 00:42:00,
2013-10-07 20:52:00,49.0,43.0,29.98,SSW,206,1.0,3.0,80,0.00,,,1.04,,2013-10-08 00:52:00,
2013-10-07 21:12:00,50.0,43.0,29.99,SSE,165,3.0,6.0,78,0.00,,,1.04,,2013-10-08 01:12:00,
2013-10-07 21:22:00,50.0,43.0,30.00,West,274,2.0,5.0,77,0.00,,,1.04,,2013-10-08 01:22:00,
2013-10-07 21:42:00,50.0,43.0,30.00,SE,146,1.0,6.0,78,0.00,,,1.04,,2013-10-08 01:42:00,
2013-10-07 21:52:00,49.0,43.0,30.01,SW,224,2.0,6.0,79,0.00,,,1.04,,2013-10-08 01:52:00,
2013-10-07 22:11:00,49.0,42.0,30.02,SSW,211,0.0,7.0,78,0.00,,,1.04,,2013-10-08 02:11:00,
2013-10-07 22:22:00,49.0,43.0,30.03,WNW,288,2.0,6.0,80,0.00,,,1.04,,2013-10-08 02:22:00,
2013-10-07 22:42:00,49.0,43.0,30.03,SW,219,2.0,5.0,80,0.00,,,1.04,,2013-10-08 02:42:00,
2013-10-07 22:52:00,49.0,43.0,30.04,SW,226,2.0,5.0,81,0.00,,,1.04,,2013-10-08 02:52:00,
2013-10-07 23:11:00,49.0,43.0,30.04,WSW,257,2.0,5.0,81,0.00,,,1.04,,2013-10-08 03:11:00,
2013-10-07 23:22:00,49.0,43.0,30.04,WSW,238,1.0,4.0,81,0.00,,,1.04,,2013-10-08 03:22:00,
2013-10-07 23:55:00,47.0,43.0,30.05,SE,125,0.0,0.0,85,0.00,,,1.04,,2013-10-08 03:55:00,